Location: La Bilong�re
(48.1297°N, 1.4584°W)
Time: 23:11:32
(UTC+00:00)

Ariane Rocket - Pass Details

Date: 03 March 2021
Orbit: 759 x 771 km, 98.7° (Epoch: 20 April)

Event Time Altitude Azimuth Distance (km) Brightness Sun altitude
Exits shadow 20:22:14 33° 188° (S) 1,278 4.0 -25.3°
Maximum altitude 20:24:28 64° 258° (WSW) 857 3.3 -25.6°
Drops below altitude 10° 20:29:33 10° 340° (NNW) 2,323 6.0 -26.4°
Sets 20:31:54 0° 343° (NNW) 3,254 6.8 -26.8°
